UAL214 KRDU-KJFK

Flight info

Callsign UAL214
Flight time 1h 12m
Altitude 35000
Route HURIC4 FEBEL DCT GUILD DCT SAWED Q108 SIE CAMRN5
Aircraft A320/M-V/N

Departure

Time 2026-05-04 19:38
Airport Raleigh-Durham International Airport (KRDU)

Arrival

Time 2026-05-04 20:51
Airport John F. Kennedy International Airport (KJFK)
Time Latitude Longitude Altitude Speed Heading
2026-05-04 19:13 35.87866 -78.79144 392 ft 0 kts 314°
2026-05-04 19:27 35.87864 -78.79141 392 ft 2 kts 314°
2026-05-04 19:27 35.87852 -78.79126 392 ft 2 kts 314°
2026-05-04 19:28 35.87839 -78.79112 393 ft 3 kts 340°
2026-05-04 19:28 35.87822 -78.79108 393 ft 3 kts 15°
2026-05-04 19:28 35.87806 -78.79118 393 ft 3 kts 51°
2026-05-04 19:28 35.87804 -78.79121 393 ft 0 kts 58°
2026-05-04 19:31 35.87805 -78.79119 393 ft 2 kts 56°
2026-05-04 19:31 35.87850 -78.79081 394 ft 10 kts 46°
2026-05-04 19:31 35.87895 -78.79023 394 ft 8 kts 45°
2026-05-04 19:32 35.87922 -78.78995 400 ft 5 kts 35°
2026-05-04 19:32 35.87993 -78.79013 397 ft 15 kts 317°
2026-05-04 19:32 35.88088 -78.79086 392 ft 16 kts
2026-05-04 19:32 35.88176 -78.78997 391 ft 17 kts 45°
2026-05-04 19:33 35.88260 -78.78892 393 ft 17 kts 45°
2026-05-04 19:33 35.88344 -78.78790 393 ft 17 kts 45°
2026-05-04 19:33 35.88427 -78.78686 394 ft 16 kts 45°
2026-05-04 19:33 35.88503 -78.78593 401 ft 15 kts 44°
2026-05-04 19:34 35.88575 -78.78504 402 ft 15 kts 45°
2026-05-04 19:34 35.88646 -78.78417 404 ft 14 kts 45°
2026-05-04 19:34 35.88728 -78.78317 403 ft 21 kts 46°
2026-05-04 19:34 35.88831 -78.78189 403 ft 22 kts 45°
2026-05-04 19:35 35.88938 -78.78056 407 ft 22 kts 46°
2026-05-04 19:35 35.89013 -78.77888 405 ft 22 kts 54°
2026-05-04 19:35 35.89117 -78.77756 412 ft 21 kts 45°
2026-05-04 19:35 35.89217 -78.77659 416 ft 15 kts
2026-05-04 19:36 35.89294 -78.77720 419 ft 6 kts 315°
2026-05-04 19:36 35.89300 -78.77727 419 ft 0 kts 315°
2026-05-04 19:37 35.89302 -78.77729 419 ft 4 kts 315°
2026-05-04 19:37 35.89353 -78.77803 415 ft 14 kts 287°
2026-05-04 19:37 35.89301 -78.77911 412 ft 18 kts 225°
2026-05-04 19:37 35.89103 -78.78155 408 ft 79 kts 225°
2026-05-04 19:38 35.88543 -78.78843 401 ft 145 kts 225°
2026-05-04 19:38 35.87759 -78.79821 769 ft 169 kts 226°
2026-05-04 19:38 35.86859 -78.80959 1257 ft 196 kts 225°
2026-05-04 19:38 35.85842 -78.82182 1914 ft 217 kts 224°
2026-05-04 19:39 35.84726 -78.83556 2536 ft 235 kts 225°
2026-05-04 19:39 35.83497 -78.84973 3140 ft 246 kts 214°
2026-05-04 19:39 35.81890 -78.85705 3739 ft 252 kts 186°
2026-05-04 19:39 35.80127 -78.85336 4351 ft 262 kts 157°
2026-05-04 19:40 35.78696 -78.83943 4952 ft 273 kts 129°
2026-05-04 19:40 35.77904 -78.81786 5556 ft 284 kts 101°
2026-05-04 19:40 35.77908 -78.79341 6160 ft 290 kts 82°
2026-05-04 19:40 35.78206 -78.76863 6755 ft 294 kts 76°
2026-05-04 19:41 35.78674 -78.74391 7344 ft 298 kts 74°
2026-05-04 19:41 35.79185 -78.71908 7936 ft 300 kts 72°
2026-05-04 19:41 35.79715 -78.69405 8540 ft 303 kts 72°
2026-05-04 19:41 35.80250 -78.66888 9157 ft 305 kts 72°
2026-05-04 19:42 35.80788 -78.64337 9789 ft 308 kts 71°
2026-05-04 19:42 35.81325 -78.61764 10377 ft 313 kts 71°
2026-05-04 19:42 35.81868 -78.59139 10963 ft 319 kts 72°
2026-05-04 19:42 35.82416 -78.56466 11561 ft 324 kts 72°
2026-05-04 19:43 35.82962 -78.53788 12158 ft 329 kts 72°
2026-05-04 19:43 35.83521 -78.51036 12777 ft 333 kts 72°
2026-05-04 19:43 35.84088 -78.48257 13413 ft 336 kts 72°
2026-05-04 19:43 35.84664 -78.45447 14038 ft 340 kts 72°
2026-05-04 19:44 35.85245 -78.42610 14606 ft 342 kts 72°
2026-05-04 19:44 35.85828 -78.39756 15192 ft 344 kts 72°
2026-05-04 19:44 35.86412 -78.36888 15785 ft 346 kts 72°
2026-05-04 19:44 35.86999 -78.34005 16392 ft 347 kts 72°
2026-05-04 19:45 35.87587 -78.31112 17009 ft 348 kts 72°
2026-05-04 19:45 35.88174 -78.28222 17629 ft 348 kts 73°
2026-05-04 19:45 35.88760 -78.25325 18275 ft 348 kts 73°
2026-05-04 19:45 35.89341 -78.22431 18841 ft 347 kts 73°
2026-05-04 19:46 35.89921 -78.19545 19412 ft 346 kts 73°
2026-05-04 19:46 35.90492 -78.16705 19982 ft 344 kts 73°
2026-05-04 19:46 35.91063 -78.13853 20577 ft 341 kts 73°
2026-05-04 19:46 35.91630 -78.11030 21175 ft 338 kts 73°
2026-05-04 19:47 35.92204 -78.08183 21455 ft 346 kts 73°
2026-05-04 19:47 35.92790 -78.05265 21719 ft 354 kts 73°
2026-05-04 19:47 35.93388 -78.02282 21985 ft 362 kts 73°
2026-05-04 19:47 35.93997 -77.99232 22253 ft 370 kts 73°
2026-05-04 19:48 35.94618 -77.96122 22524 ft 377 kts 73°
2026-05-04 19:48 35.95275 -77.92956 22789 ft 384 kts 70°
2026-05-04 19:48 35.96212 -77.89850 23068 ft 388 kts 62°
2026-05-04 19:48 35.97485 -77.86904 23344 ft 392 kts 53°
2026-05-04 19:49 35.99026 -77.84097 23620 ft 398 kts 51°
2026-05-04 19:49 36.00609 -77.81252 23854 ft 406 kts 52°
2026-05-04 19:49 36.02217 -77.78348 24091 ft 413 kts 52°
2026-05-04 19:49 36.03845 -77.75391 24309 ft 420 kts 52°
2026-05-04 19:50 36.05500 -77.72381 24552 ft 427 kts 52°
2026-05-04 19:50 36.07182 -77.69319 24796 ft 433 kts 52°
2026-05-04 19:50 36.08889 -77.66211 25032 ft 439 kts 52°
2026-05-04 19:50 36.10614 -77.63065 25268 ft 445 kts 52°
2026-05-04 19:51 36.12361 -77.59879 25519 ft 450 kts 52°
2026-05-04 19:51 36.14130 -77.56644 25762 ft 455 kts 52°
2026-05-04 19:51 36.15909 -77.53397 26012 ft 459 kts 52°
2026-05-04 19:51 36.17707 -77.50113 26262 ft 463 kts 52°
2026-05-04 19:52 36.18905 -77.47923 26429 ft 465 kts 52°
2026-05-04 19:52 36.20727 -77.44590 26685 ft 469 kts 52°
2026-05-04 19:52 36.22562 -77.41228 26940 ft 472 kts 52°
2026-05-04 19:52 36.25003 -77.36742 27292 ft 477 kts 52°
2026-05-04 19:53 36.26863 -77.33324 27554 ft 479 kts 52°
2026-05-04 19:53 36.28731 -77.29887 27815 ft 481 kts 52°
2026-05-04 19:53 36.29993 -77.27565 28002 ft 480 kts 51°
2026-05-04 19:53 36.32044 -77.24393 28259 ft 475 kts 41°
2026-05-04 19:54 36.34425 -77.21584 28541 ft 472 kts 36°
2026-05-04 19:54 36.36866 -77.18866 28820 ft 472 kts 36°
2026-05-04 19:54 36.39307 -77.16141 29088 ft 473 kts 36°
2026-05-04 19:54 36.41750 -77.13404 29367 ft 473 kts 36°
2026-05-04 19:55 36.44187 -77.10663 29655 ft 473 kts 36°
2026-05-04 19:55 36.46627 -77.07918 29943 ft 473 kts 36°
2026-05-04 19:55 36.49066 -77.05179 30206 ft 473 kts 36°
2026-05-04 19:55 36.51506 -77.02440 30444 ft 472 kts 36°
2026-05-04 19:56 36.53945 -76.99700 30689 ft 472 kts 36°
2026-05-04 19:56 36.56382 -76.96968 30943 ft 471 kts 36°
2026-05-04 19:56 36.58813 -76.94242 31188 ft 471 kts 36°
2026-05-04 19:56 36.61240 -76.91511 31444 ft 470 kts 36°
2026-05-04 19:57 36.63661 -76.88779 31706 ft 470 kts 36°
2026-05-04 19:57 36.66085 -76.86041 31962 ft 469 kts 36°
2026-05-04 19:57 36.68505 -76.83301 32223 ft 469 kts 36°
2026-05-04 19:57 36.70919 -76.80574 32490 ft 469 kts 36°
2026-05-04 19:58 36.73336 -76.77843 32759 ft 468 kts 35°
2026-05-04 19:58 36.75751 -76.75112 33026 ft 468 kts 35°
2026-05-04 19:58 36.78161 -76.72380 33310 ft 468 kts 35°
2026-05-04 19:58 36.80571 -76.69641 33591 ft 468 kts 35°
2026-05-04 19:59 36.82944 -76.66941 33863 ft 468 kts 35°
2026-05-04 19:59 36.85348 -76.64204 34131 ft 467 kts 35°
2026-05-04 19:59 36.87752 -76.61468 34373 ft 467 kts 35°
2026-05-04 19:59 36.90153 -76.58733 34617 ft 467 kts 35°
2026-05-04 20:00 36.92587 -76.55958 34866 ft 467 kts 35°
2026-05-04 20:00 36.94991 -76.53218 35005 ft 469 kts 36°
2026-05-04 20:00 36.97412 -76.50459 34999 ft 474 kts 36°
2026-05-04 20:01 37.02313 -76.44855 34988 ft 484 kts 36°
2026-05-04 20:01 37.07290 -76.39138 34987 ft 486 kts 36°
2026-05-04 20:02 37.12268 -76.33411 34989 ft 486 kts 36°
2026-05-04 20:02 37.17242 -76.27686 34991 ft 485 kts 36°
2026-05-04 20:03 37.22209 -76.21969 35011 ft 485 kts 37°
2026-05-04 20:03 37.27172 -76.16242 35022 ft 484 kts 37°
2026-05-04 20:04 37.32121 -76.10506 35029 ft 483 kts 37°
2026-05-04 20:04 37.37059 -76.04771 35027 ft 483 kts 37°
2026-05-04 20:05 37.41994 -75.99042 35030 ft 482 kts 37°
2026-05-04 20:05 37.46917 -75.93321 35035 ft 481 kts 37°
2026-05-04 20:06 37.51827 -75.87607 35039 ft 480 kts 36°
2026-05-04 20:06 37.57229 -75.82900 35042 ft 469 kts 25°
2026-05-04 20:07 37.62840 -75.78714 35041 ft 468 kts 25°
2026-05-04 20:07 37.68440 -75.74523 35044 ft 468 kts 25°
2026-05-04 20:08 37.74039 -75.70317 35045 ft 467 kts 25°
2026-05-04 20:08 37.79621 -75.66109 35048 ft 467 kts 25°
2026-05-04 20:09 37.85189 -75.61879 35052 ft 467 kts 26°
2026-05-04 20:09 37.90574 -75.57342 35051 ft 469 kts 30°
2026-05-04 20:10 37.95886 -75.52562 35053 ft 468 kts 30°
2026-05-04 20:10 38.01203 -75.47818 35052 ft 467 kts 29°
2026-05-04 20:11 38.06550 -75.43161 35049 ft 465 kts 28°
2026-05-04 20:11 38.11970 -75.38711 35048 ft 462 kts 27°
2026-05-04 20:12 38.17421 -75.34368 35032 ft 462 kts 27°
2026-05-04 20:12 38.22830 -75.30080 35038 ft 458 kts 22°
2026-05-04 20:13 38.28737 -75.27353 35039 ft 443 kts
2026-05-04 20:13 38.34760 -75.26100 35033 ft 441 kts
2026-05-04 20:14 38.40817 -75.24840 35040 ft 441 kts
2026-05-04 20:14 38.46869 -75.23565 35036 ft 440 kts
2026-05-04 20:15 38.52914 -75.22288 35001 ft 440 kts
2026-05-04 20:15 38.58955 -75.21018 35003 ft 439 kts
2026-05-04 20:16 38.64989 -75.19755 34999 ft 439 kts
2026-05-04 20:16 38.70879 -75.17530 34995 ft 449 kts 22°
2026-05-04 20:17 38.76100 -75.12997 35000 ft 457 kts 33°
2026-05-04 20:17 38.81121 -75.08065 35008 ft 457 kts 32°
2026-05-04 20:18 38.86174 -75.03111 35014 ft 457 kts 32°
2026-05-04 20:18 38.91219 -74.98148 35019 ft 456 kts 33°
2026-05-04 20:19 38.96244 -74.93188 35017 ft 456 kts 33°
2026-05-04 20:19 39.01278 -74.88229 35016 ft 455 kts 33°
2026-05-04 20:20 39.06299 -74.83261 34971 ft 455 kts 33°
2026-05-04 20:20 39.08816 -74.80765 34170 ft 454 kts 33°
2026-05-04 20:20 39.11469 -74.78083 33195 ft 449 kts 34°
2026-05-04 20:20 39.13678 -74.75753 32361 ft 448 kts 35°
2026-05-04 20:21 39.16092 -74.73132 31461 ft 449 kts 36°
2026-05-04 20:21 39.18468 -74.70515 30603 ft 450 kts 36°
2026-05-04 20:21 39.23188 -74.65314 28756 ft 446 kts 35°
2026-05-04 20:22 39.25541 -74.62742 27821 ft 441 kts 35°
2026-05-04 20:22 39.27876 -74.60202 26918 ft 437 kts 35°
2026-05-04 20:22 39.30195 -74.57689 26044 ft 433 kts 35°
2026-05-04 20:22 39.32488 -74.55208 25188 ft 428 kts 35°
2026-05-04 20:23 39.34764 -74.52744 24371 ft 424 kts 35°
2026-05-04 20:23 39.37013 -74.50304 23572 ft 420 kts 35°
2026-05-04 20:23 39.39247 -74.47876 22641 ft 416 kts 35°
2026-05-04 20:23 39.41452 -74.45475 21735 ft 412 kts 35°
2026-05-04 20:24 39.43635 -74.43096 20852 ft 408 kts 35°
2026-05-04 20:24 39.45765 -74.40769 20014 ft 404 kts 36°
2026-05-04 20:24 39.47895 -74.38439 19299 ft 399 kts 36°
2026-05-04 20:24 39.50017 -74.36121 19062 ft 399 kts 36°
2026-05-04 20:25 39.52141 -74.33803 18937 ft 399 kts 36°
2026-05-04 20:25 39.54267 -74.31477 18972 ft 400 kts 36°
2026-05-04 20:25 39.56386 -74.29153 18971 ft 400 kts 36°
2026-05-04 20:25 39.58512 -74.26817 18975 ft 400 kts 36°
2026-05-04 20:26 39.60635 -74.24488 18827 ft 401 kts 36°
2026-05-04 20:26 39.62758 -74.22156 18393 ft 398 kts 36°
2026-05-04 20:26 39.64863 -74.19839 17922 ft 396 kts 36°
2026-05-04 20:26 39.66967 -74.17522 17441 ft 394 kts 36°
2026-05-04 20:27 39.69055 -74.15223 16961 ft 392 kts 36°
2026-05-04 20:27 39.71128 -74.12937 16502 ft 390 kts 36°
2026-05-04 20:27 39.73194 -74.10658 16020 ft 389 kts 36°
2026-05-04 20:27 39.75251 -74.08386 15569 ft 386 kts 36°
2026-05-04 20:28 39.77255 -74.06163 15049 ft 372 kts 36°
2026-05-04 20:28 39.79182 -74.04017 14539 ft 359 kts 36°
2026-05-04 20:28 39.81055 -74.01934 14041 ft 351 kts 36°
2026-05-04 20:28 39.82904 -73.99887 13517 ft 347 kts 35°
2026-05-04 20:29 39.84845 -73.98077 12962 ft 340 kts 26°
2026-05-04 20:29 39.86903 -73.96605 12416 ft 336 kts 23°
2026-05-04 20:29 39.88951 -73.95172 11876 ft 332 kts 24°
2026-05-04 20:29 39.90960 -73.93755 11349 ft 324 kts 24°
2026-05-04 20:30 39.92879 -73.92395 11059 ft 312 kts 24°
2026-05-04 20:30 39.94775 -73.91061 11009 ft 305 kts 24°
2026-05-04 20:30 39.96642 -73.89747 11012 ft 304 kts 23°
2026-05-04 20:30 39.98501 -73.88432 11018 ft 303 kts 24°
2026-05-04 20:31 40.00356 -73.87119 11015 ft 303 kts 24°
2026-05-04 20:31 40.02211 -73.85805 11014 ft 303 kts 23°
2026-05-04 20:31 40.04066 -73.84492 11010 ft 303 kts 23°
2026-05-04 20:31 40.05945 -73.83246 10803 ft 301 kts 19°
2026-05-04 20:32 40.07811 -73.81993 10584 ft 302 kts 24°
2026-05-04 20:32 40.09646 -73.80660 10362 ft 301 kts 24°
2026-05-04 20:32 40.11447 -73.79344 10148 ft 300 kts 24°
2026-05-04 20:32 40.13266 -73.78017 9936 ft 299 kts 24°
2026-05-04 20:33 40.15080 -73.76696 9702 ft 298 kts 24°
2026-05-04 20:33 40.16891 -73.75378 9468 ft 297 kts 24°
2026-05-04 20:33 40.18693 -73.74067 9232 ft 296 kts 24°
2026-05-04 20:33 40.20488 -73.72764 8995 ft 295 kts 24°
2026-05-04 20:34 40.22285 -73.71461 8760 ft 294 kts 24°
2026-05-04 20:34 40.24074 -73.70167 8528 ft 293 kts 24°
2026-05-04 20:34 40.25857 -73.68879 8298 ft 292 kts 24°
2026-05-04 20:34 40.27639 -73.67596 8069 ft 292 kts 24°
2026-05-04 20:35 40.29415 -73.66322 7840 ft 291 kts 24°
2026-05-04 20:35 40.31191 -73.65052 7618 ft 290 kts 24°
2026-05-04 20:35 40.32962 -73.63787 7391 ft 289 kts 24°
2026-05-04 20:35 40.34723 -73.62529 7171 ft 288 kts 24°
2026-05-04 20:36 40.36374 -73.61347 6959 ft 287 kts 24°
2026-05-04 20:36 40.38123 -73.60094 6744 ft 287 kts 24°
2026-05-04 20:36 40.39872 -73.58844 6520 ft 286 kts 24°
2026-05-04 20:36 40.41619 -73.57591 6296 ft 285 kts 24°
2026-05-04 20:37 40.43357 -73.56344 6065 ft 284 kts 24°
2026-05-04 20:37 40.45071 -73.55117 5834 ft 284 kts 24°
2026-05-04 20:37 40.46809 -73.53878 5609 ft 284 kts 24°
2026-05-04 20:37 40.48539 -73.52652 5374 ft 283 kts 24°
2026-05-04 20:38 40.50271 -73.51432 5147 ft 282 kts 24°
2026-05-04 20:38 40.52006 -73.50220 4918 ft 283 kts 24°
2026-05-04 20:38 40.53180 -73.49403 4765 ft 283 kts 24°
2026-05-04 20:38 40.54919 -73.48204 4533 ft 282 kts 24°
2026-05-04 20:39 40.56656 -73.47007 4294 ft 281 kts 24°
2026-05-04 20:39 40.58387 -73.45817 4088 ft 281 kts 24°
2026-05-04 20:39 40.60124 -73.44628 4003 ft 280 kts 24°
2026-05-04 20:39 40.62424 -73.43062 4004 ft 281 kts 24°
2026-05-04 20:40 40.63594 -73.42336 3994 ft 267 kts 14°
2026-05-04 20:40 40.65289 -73.42031 4005 ft 236 kts 355°
2026-05-04 20:40 40.66871 -73.42064 4003 ft 222 kts 352°
2026-05-04 20:40 40.68425 -73.42131 4046 ft 220 kts 352°
2026-05-04 20:41 40.69949 -73.42200 4001 ft 218 kts 352°
2026-05-04 20:41 40.71448 -73.42267 4006 ft 219 kts 352°
2026-05-04 20:41 40.72987 -73.42345 4011 ft 218 kts 352°
2026-05-04 20:41 40.74485 -73.42414 4010 ft 218 kts 352°
2026-05-04 20:42 40.76002 -73.42489 4004 ft 217 kts 349°
2026-05-04 20:42 40.77376 -73.43108 4008 ft 206 kts 322°
2026-05-04 20:42 40.78540 -73.44193 4017 ft 206 kts 318°
2026-05-04 20:42 40.79679 -73.45338 4007 ft 206 kts 317°
2026-05-04 20:43 40.80781 -73.46525 4010 ft 203 kts 311°
2026-05-04 20:43 40.81755 -73.47875 4016 ft 203 kts 308°
2026-05-04 20:43 40.82697 -73.49254 4006 ft 202 kts 307°
2026-05-04 20:43 40.83634 -73.50627 4008 ft 201 kts 307°
2026-05-04 20:44 40.84415 -73.52128 4010 ft 197 kts 287°
2026-05-04 20:44 40.84742 -73.53870 4009 ft 195 kts 273°
2026-05-04 20:44 40.84780 -73.55649 4007 ft 194 kts 267°
2026-05-04 20:44 40.84475 -73.57372 4006 ft 193 kts 248°
2026-05-04 20:45 40.83650 -73.58748 4006 ft 196 kts 219°
2026-05-04 20:45 40.82562 -73.59812 4001 ft 187 kts 222°
2026-05-04 20:45 40.81595 -73.60869 4002 ft 176 kts 223°
2026-05-04 20:45 40.80660 -73.61918 3906 ft 179 kts 224°
2026-05-04 20:46 40.79732 -73.62983 3517 ft 178 kts 224°
2026-05-04 20:46 40.78773 -73.63977 3163 ft 176 kts 216°
2026-05-04 20:46 40.77824 -73.64883 3049 ft 158 kts 219°
2026-05-04 20:46 40.76951 -73.65665 2858 ft 148 kts 216°
2026-05-04 20:47 40.76103 -73.66371 2666 ft 141 kts 214°
2026-05-04 20:47 40.75272 -73.67042 2491 ft 139 kts 215°
2026-05-04 20:47 40.74455 -73.67693 2300 ft 136 kts 214°
2026-05-04 20:47 40.73648 -73.68330 2130 ft 134 kts 214°
2026-05-04 20:48 40.72852 -73.68956 1944 ft 132 kts 213°
2026-05-04 20:48 40.72064 -73.69576 1759 ft 131 kts 213°
2026-05-04 20:48 40.71277 -73.70194 1598 ft 132 kts 213°
2026-05-04 20:48 40.70483 -73.70817 1409 ft 133 kts 212°
2026-05-04 20:49 40.69685 -73.71442 1230 ft 134 kts 211°
2026-05-04 20:49 40.68885 -73.72070 1054 ft 133 kts 211°
2026-05-04 20:49 40.68151 -73.72645 883 ft 133 kts 209°
2026-05-04 20:49 40.67360 -73.73264 703 ft 132 kts 208°
2026-05-04 20:50 40.66585 -73.73901 523 ft 132 kts 208°
2026-05-04 20:50 40.65807 -73.74502 381 ft 129 kts 206°
2026-05-04 20:50 40.65034 -73.75096 206 ft 127 kts 207°
2026-05-04 20:50 40.64285 -73.75683 51 ft 127 kts 204°
2026-05-04 20:51 40.63615 -73.76182 20 ft 74 kts 213°
2026-05-04 20:51 40.63342 -73.76431 20 ft 40 kts 225°
2026-05-04 20:51 40.63237 -73.76697 16 ft 26 kts 276°
2026-05-04 20:51 40.63314 -73.76888 15 ft 25 kts 301°
2026-05-04 20:52 40.63404 -73.77088 16 ft 26 kts 301°
2026-05-04 20:52 40.63477 -73.77253 16 ft 14 kts 301°
2026-05-04 20:52 40.63521 -73.77346 17 ft 8 kts 301°
2026-05-04 20:52 40.63526 -73.77354 17 ft 0 kts 301°
2026-05-04 20:53 40.63543 -73.77393 18 ft 13 kts 301°
2026-05-04 20:53 40.63590 -73.77494 19 ft 15 kts 301°
2026-05-04 20:54 40.63664 -73.77639 16 ft 15 kts 307°
2026-05-04 20:54 40.63761 -73.77686 16 ft 16 kts 340°
2026-05-04 20:54 40.63860 -73.77767 16 ft 18 kts 326°
2026-05-04 20:54 40.63900 -73.77855 16 ft 12 kts 251°
2026-05-04 20:55 40.63858 -73.77957 16 ft 14 kts 245°
2026-05-04 20:55 40.63845 -73.78036 16 ft 0 kts 263°
2026-05-04 20:55 40.63845 -73.78038 16 ft 2 kts 263°
2026-05-04 20:55 40.63844 -73.78045 16 ft 0 kts 263°